轨道通信卫星FM06星 (ORBCOMM FM06)

导读 | 豆包AI

ORBCOMM FM 6是ORBCOMM(轨道通信)公司于1997年12月23日发射的低地球轨道通信卫星,隶属于第一代ORBCOMM卫星星座。该卫星系统主打机器对机器(M2M)与物联网数据传输服务,运行于近地轨道,工作在VHF/UHF波段,凭借低时延特性为全球提供低成本窄带数据通信服务,推动了早期天基物联网的商业化应用。

基本信息
目录编号:
25118
目录名称:
ORBCOMM FM 6
国际标识:
1997-084G
轨道中心:
EARTH
卫星名称:
轨道通信卫星FM06星
卫星全名:
轨道通信卫星FM06星 (ORBCOMM FM06)
卫星状态:
在轨 (已飞行10308 天)
发射日期:
1997-12-23 UTC
国别 :
(ORB)
星等 :
--
轨道信息
数据来源 国际轨道数据
星历时间: 2026-03-13T23:15:47+0800
10小时前
查看轨道信息
半长轴: 7112.658km
偏心率: 0.0002273
轨道倾角: 45.012°
近地点辐角 214.362°
升交点赤经 152.607°
平近点角 298.238°
近地点: 732.904km
远地点: 736.138km
周期: 99.496分钟
每日圈数: 14.472878
详细信息
固有亮度:
8
最大亮度:
6.9
平衡模式:
三轴稳定
覆盖范围:
全球
运营商:
轨道通信公司
运营商所在国:
美国
制造商(研发单位):
轨道ATK公司
制造商所在国:
美国
使用方式:
暂无
卫星简介
轨道通信FM(Orbcomm FM)是一系列低地球轨道通信卫星,由美国卫星通信公司 Orbcomm运营。 截至2015年12月,已有63颗此类卫星绕地球运行。该卫星仍在工作。
2D轨道图
3D轨道图
轨道高度分析图
轨道倾角分析图
轨道综合分析图
查看轨道综合分析图